NWK1610 YPPH-YPKG

Flight info

Callsign NWK1610
Flight time 0h 48m
Altitude 33000
Route PH Y31 LAKIR Y69 BOSLI Y67 KG
Aircraft A319/M-SDE3FGHIRYZ/LB1

Departure

Time 2026-04-21 09:20
Airport Perth International Airport (YPPH)

Arrival

Time 2026-04-21 10:08
Airport Kalgoorlie Boulder Airport (YPKG)
Time Latitude Longitude Altitude Speed Heading
2026-04-21 08:41 -31.93439 115.96181 62 ft 0 kts 301°
2026-04-21 09:13 -31.93439 115.96182 68 ft 2 kts 301°
2026-04-21 09:13 -31.93451 115.96203 60 ft 3 kts 310°
2026-04-21 09:13 -31.93467 115.96222 68 ft 3 kts 323°
2026-04-21 09:13 -31.93486 115.96235 59 ft 3 kts 343°
2026-04-21 09:14 -31.93506 115.96238 63 ft 3 kts 24°
2026-04-21 09:14 -31.93510 115.96236 59 ft 0 kts 31°
2026-04-21 09:16 -31.93508 115.96237 64 ft 0 kts 31°
2026-04-21 09:16 -31.93498 115.96245 62 ft 3 kts 31°
2026-04-21 09:17 -31.93472 115.96261 62 ft 5 kts 27°
2026-04-21 09:17 -31.93432 115.96283 65 ft 7 kts 22°
2026-04-21 09:17 -31.93375 115.96307 65 ft 10 kts 16°
2026-04-21 09:17 -31.93298 115.96326 65 ft 12 kts 10°
2026-04-21 09:18 -31.93210 115.96331 68 ft 13 kts
2026-04-21 09:18 -31.93122 115.96371 63 ft 14 kts 42°
2026-04-21 09:18 -31.93050 115.96463 64 ft 16 kts 47°
2026-04-21 09:18 -31.92970 115.96565 66 ft 18 kts 39°
2026-04-21 09:19 -31.92859 115.96613 64 ft 16 kts 49°
2026-04-21 09:19 -31.92857 115.96740 63 ft 17 kts 103°
2026-04-21 09:19 -31.92899 115.96830 66 ft 13 kts 163°
2026-04-21 09:19 -31.93044 115.96795 64 ft 41 kts 194°
2026-04-21 09:20 -31.93514 115.96657 64 ft 97 kts 194°
2026-04-21 09:20 -31.94341 115.96418 64 ft 147 kts 193°
2026-04-21 09:20 -31.95394 115.96113 493 ft 155 kts 194°
2026-04-21 09:20 -31.96449 115.95827 1130 ft 156 kts 193°
2026-04-21 09:21 -31.97511 115.95569 1777 ft 157 kts 192°
2026-04-21 09:21 -31.98629 115.95263 2133 ft 175 kts 194°
2026-04-21 09:21 -31.99880 115.94893 2489 ft 195 kts 194°
2026-04-21 09:21 -32.01264 115.94473 2861 ft 216 kts 193°
2026-04-21 09:22 -32.02841 115.94373 3305 ft 240 kts 171°
2026-04-21 09:22 -32.04395 115.95193 4054 ft 253 kts 142°
2026-04-21 09:22 -32.05447 115.96890 4942 ft 264 kts 112°
2026-04-21 09:22 -32.05723 115.99063 5829 ft 271 kts 92°
2026-04-21 09:23 -32.05701 116.01324 6685 ft 280 kts 90°
2026-04-21 09:23 -32.05654 116.03654 7413 ft 288 kts 89°
2026-04-21 09:23 -32.05649 116.06039 8241 ft 293 kts 95°
2026-04-21 09:23 -32.05975 116.08432 9063 ft 299 kts 104°
2026-04-21 09:24 -32.06516 116.10821 9834 ft 305 kts 108°
2026-04-21 09:24 -32.07146 116.13217 10340 ft 321 kts 109°
2026-04-21 09:24 -32.07702 116.15862 10573 ft 345 kts 99°
2026-04-21 09:24 -32.07796 116.18782 10740 ft 369 kts 85°
2026-04-21 09:25 -32.07247 116.21811 10997 ft 385 kts 69°
2026-04-21 09:25 -32.06071 116.24683 11544 ft 390 kts 56°
2026-04-21 09:25 -32.04404 116.27213 12144 ft 392 kts 44°
2026-04-21 09:25 -32.02522 116.29564 12721 ft 397 kts 44°
2026-04-21 09:26 -32.00620 116.31950 13305 ft 402 kts 44°
2026-04-21 09:26 -31.98694 116.34363 13859 ft 407 kts 44°
2026-04-21 09:26 -31.96742 116.36801 14368 ft 411 kts 43°
2026-04-21 09:26 -31.94769 116.39264 14898 ft 415 kts 43°
2026-04-21 09:27 -31.92776 116.41750 15429 ft 419 kts 43°
2026-04-21 09:27 -31.90768 116.44251 15979 ft 422 kts 43°
2026-04-21 09:27 -31.88733 116.46782 16538 ft 426 kts 43°
2026-04-21 09:27 -31.86691 116.49322 17091 ft 430 kts 43°
2026-04-21 09:28 -31.84627 116.51885 17649 ft 433 kts 43°
2026-04-21 09:28 -31.82571 116.54434 18203 ft 437 kts 42°
2026-04-21 09:28 -31.80468 116.57038 18716 ft 441 kts 43°
2026-04-21 09:28 -31.78348 116.59658 19186 ft 444 kts 43°
2026-04-21 09:29 -31.76207 116.62302 19669 ft 447 kts 43°
2026-04-21 09:29 -31.74065 116.64952 20137 ft 450 kts 43°
2026-04-21 09:29 -31.71893 116.67641 20595 ft 453 kts 43°
2026-04-21 09:29 -31.69712 116.70341 21039 ft 457 kts 43°
2026-04-21 09:30 -31.67520 116.73055 21467 ft 460 kts 44°
2026-04-21 09:30 -31.65306 116.75791 21877 ft 463 kts 44°
2026-04-21 09:30 -31.63079 116.78541 22281 ft 466 kts 44°
2026-04-21 09:30 -31.60830 116.81306 22673 ft 469 kts 44°
2026-04-21 09:31 -31.58569 116.84080 23067 ft 472 kts 44°
2026-04-21 09:31 -31.56387 116.86924 23443 ft 477 kts 50°
2026-04-21 09:31 -31.54520 116.90158 23800 ft 482 kts 59°
2026-04-21 09:31 -31.52971 116.93662 24111 ft 485 kts 62°
2026-04-21 09:32 -31.51438 116.97190 24422 ft 488 kts 62°
2026-04-21 09:32 -31.49887 117.00736 24734 ft 490 kts 62°
2026-04-21 09:32 -31.48323 117.04298 25038 ft 493 kts 62°
2026-04-21 09:32 -31.46749 117.07880 25340 ft 496 kts 62°
2026-04-21 09:33 -31.45163 117.11482 25648 ft 498 kts 62°
2026-04-21 09:33 -31.43567 117.15096 25940 ft 501 kts 62°
2026-04-21 09:33 -31.41963 117.18731 26229 ft 504 kts 62°
2026-04-21 09:33 -31.40350 117.22383 26488 ft 506 kts 62°
2026-04-21 09:34 -31.38729 117.26051 26771 ft 509 kts 61°
2026-04-21 09:34 -31.37098 117.29741 27036 ft 511 kts 61°
2026-04-21 09:34 -31.35459 117.33447 27311 ft 514 kts 61°
2026-04-21 09:34 -31.33811 117.37165 27578 ft 516 kts 61°
2026-04-21 09:35 -31.32152 117.40909 27832 ft 518 kts 61°
2026-04-21 09:35 -31.30490 117.44656 28083 ft 521 kts 61°
2026-04-21 09:35 -31.28816 117.48426 28333 ft 523 kts 61°
2026-04-21 09:35 -31.27151 117.52167 28583 ft 526 kts 61°
2026-04-21 09:36 -31.25493 117.55969 28937 ft 526 kts 62°
2026-04-21 09:36 -31.23892 117.59824 29289 ft 526 kts 63°
2026-04-21 09:36 -31.22341 117.63703 29650 ft 527 kts 64°
2026-04-21 09:36 -31.20814 117.67588 30013 ft 527 kts 64°
2026-04-21 09:37 -31.19279 117.71480 30347 ft 527 kts 63°
2026-04-21 09:37 -31.17728 117.75360 30666 ft 527 kts 63°
2026-04-21 09:37 -31.16159 117.79225 30979 ft 527 kts 63°
2026-04-21 09:37 -31.14575 117.83077 31303 ft 526 kts 63°
2026-04-21 09:38 -31.12984 117.86921 31631 ft 526 kts 63°
2026-04-21 09:38 -31.11394 117.90764 31963 ft 526 kts 63°
2026-04-21 09:38 -31.09807 117.94609 32299 ft 525 kts 63°
2026-04-21 09:38 -31.08226 117.98453 32637 ft 525 kts 63°
2026-04-21 09:39 -31.06670 118.02243 32982 ft 525 kts 63°
2026-04-21 09:39 -31.05094 118.06081 33139 ft 525 kts 63°
2026-04-21 09:39 -31.01942 118.13756 33164 ft 524 kts 63°
2026-04-21 09:40 -30.98779 118.21416 33159 ft 524 kts 62°
2026-04-21 09:40 -30.95609 118.29066 33164 ft 524 kts 62°
2026-04-21 09:41 -30.92439 118.36719 33164 ft 524 kts 62°
2026-04-21 09:41 -30.89259 118.44367 33154 ft 525 kts 62°
2026-04-21 09:42 -30.86073 118.52021 33147 ft 525 kts 62°
2026-04-21 09:42 -30.82883 118.59664 33125 ft 525 kts 62°
2026-04-21 09:43 -30.79692 118.67298 33129 ft 525 kts 62°
2026-04-21 09:43 -30.76493 118.74933 33136 ft 525 kts 62°
2026-04-21 09:44 -30.73366 118.82545 33140 ft 527 kts 66°
2026-04-21 09:44 -30.71548 118.90784 33137 ft 528 kts 84°
2026-04-21 09:45 -30.71135 118.99296 33127 ft 528 kts 88°
2026-04-21 09:45 -30.70770 119.07821 33132 ft 529 kts 88°
2026-04-21 09:46 -30.70375 119.16369 33167 ft 529 kts 88°
2026-04-21 09:46 -30.69983 119.24916 33161 ft 529 kts 88°
2026-04-21 09:47 -30.69599 119.33463 33141 ft 530 kts 88°
2026-04-21 09:47 -30.69209 119.42001 33134 ft 530 kts 88°
2026-04-21 09:48 -30.68797 119.50571 33140 ft 531 kts 88°
2026-04-21 09:48 -30.68377 119.59131 33130 ft 531 kts 87°
2026-04-21 09:49 -30.67966 119.67726 33133 ft 532 kts 87°
2026-04-21 09:49 -30.67552 119.76317 33139 ft 533 kts 87°
2026-04-21 09:50 -30.67268 119.82005 33138 ft 533 kts 87°
2026-04-21 09:50 -30.66757 119.92056 33131 ft 533 kts 87°
2026-04-21 09:51 -30.66315 120.00661 33129 ft 534 kts 86°
2026-04-21 09:51 -30.65871 120.09270 33135 ft 534 kts 86°
2026-04-21 09:52 -30.65422 120.17890 33130 ft 535 kts 86°
2026-04-21 09:52 -30.64966 120.26524 33098 ft 536 kts 86°
2026-04-21 09:53 -30.64734 120.30795 32844 ft 537 kts 86°
2026-04-21 09:53 -30.64497 120.35111 32590 ft 537 kts 86°
2026-04-21 09:53 -30.64261 120.39438 32365 ft 537 kts 86°
2026-04-21 09:53 -30.64023 120.43763 32115 ft 537 kts 86°
2026-04-21 09:54 -30.63784 120.48088 31337 ft 539 kts 86°
2026-04-21 09:54 -30.63539 120.52490 29992 ft 553 kts 87°
2026-04-21 09:54 -30.63294 120.56944 29122 ft 550 kts 87°
2026-04-21 09:54 -30.63051 120.61366 28138 ft 548 kts 87°
2026-04-21 09:55 -30.62804 120.65778 27086 ft 545 kts 88°
2026-04-21 09:55 -30.62557 120.70163 25733 ft 544 kts 88°
2026-04-21 09:55 -30.62308 120.74534 24363 ft 541 kts 88°
2026-04-21 09:55 -30.62056 120.78874 23270 ft 532 kts 88°
2026-04-21 09:56 -30.61810 120.83106 22221 ft 519 kts 88°
2026-04-21 09:56 -30.61640 120.87249 21106 ft 508 kts 92°
2026-04-21 09:56 -30.61943 120.91286 20020 ft 497 kts 102°
2026-04-21 09:56 -30.62760 120.95142 18952 ft 486 kts 111°
2026-04-21 09:57 -30.63927 120.98778 17815 ft 478 kts 114°
2026-04-21 09:57 -30.65099 121.02354 16676 ft 471 kts 113°
2026-04-21 09:57 -30.66253 121.05876 15577 ft 463 kts 113°
2026-04-21 09:57 -30.67387 121.09352 14540 ft 455 kts 112°
2026-04-21 09:58 -30.68492 121.12762 13563 ft 447 kts 112°
2026-04-21 09:58 -30.69569 121.16098 12792 ft 435 kts 112°
2026-04-21 09:58 -30.70612 121.19325 12075 ft 422 kts 112°
2026-04-21 09:58 -30.71627 121.22463 11429 ft 416 kts 112°
2026-04-21 09:59 -30.72624 121.25545 11266 ft 396 kts 112°
2026-04-21 09:59 -30.73579 121.28518 10454 ft 397 kts 112°
2026-04-21 09:59 -30.74632 121.31460 10033 ft 388 kts 115°
2026-04-21 09:59 -30.75734 121.34233 9898 ft 370 kts 118°
2026-04-21 10:00 -30.76968 121.36752 9758 ft 347 kts 126°
2026-04-21 10:00 -30.78407 121.38878 9625 ft 323 kts 136°
2026-04-21 10:00 -30.80005 121.40572 9494 ft 300 kts 146°
2026-04-21 10:00 -30.81613 121.42001 9374 ft 282 kts 146°
2026-04-21 10:01 -30.83130 121.43347 9226 ft 266 kts 146°
2026-04-21 10:01 -30.84565 121.44622 9024 ft 255 kts 146°
2026-04-21 10:01 -30.85954 121.45856 8713 ft 246 kts 146°
2026-04-21 10:01 -30.87267 121.47023 8584 ft 231 kts 146°
2026-04-21 10:02 -30.89765 121.49241 8065 ft 223 kts 146°
2026-04-21 10:02 -30.90942 121.50408 7756 ft 221 kts 135°
2026-04-21 10:02 -30.91851 121.51838 7483 ft 216 kts 121°
2026-04-21 10:03 -30.92414 121.53401 7338 ft 204 kts 105°
2026-04-21 10:03 -30.92586 121.55021 7053 ft 201 kts 90°
2026-04-21 10:03 -30.92392 121.56593 6675 ft 198 kts 75°
2026-04-21 10:03 -30.91843 121.58057 6227 ft 197 kts 59°
2026-04-21 10:04 -30.90993 121.59292 5810 ft 195 kts 44°
2026-04-21 10:04 -30.89914 121.60220 5441 ft 193 kts 30°
2026-04-21 10:04 -30.88663 121.60796 5016 ft 193 kts 13°
2026-04-21 10:04 -30.87335 121.60975 4596 ft 192 kts 358°
2026-04-21 10:05 -30.86016 121.60755 4169 ft 191 kts 342°
2026-04-21 10:05 -30.84803 121.60160 3762 ft 188 kts 327°
2026-04-21 10:05 -30.83774 121.59247 3346 ft 185 kts 312°
2026-04-21 10:05 -30.82987 121.58088 3020 ft 180 kts 297°
2026-04-21 10:06 -30.82475 121.56806 2802 ft 171 kts 285°
2026-04-21 10:06 -30.82072 121.55538 2602 ft 169 kts 286°
2026-04-21 10:06 -30.81663 121.54262 2388 ft 168 kts 286°
2026-04-21 10:06 -30.81272 121.53037 2123 ft 153 kts 285°
2026-04-21 10:07 -30.80905 121.51932 1979 ft 142 kts 288°
2026-04-21 10:07 -30.80566 121.50879 1785 ft 136 kts 287°
2026-04-21 10:07 -30.80240 121.49854 1627 ft 135 kts 287°
2026-04-21 10:07 -30.79917 121.48824 1466 ft 136 kts 289°
2026-04-21 10:08 -30.79574 121.47790 1347 ft 137 kts 290°
2026-04-21 10:08 -30.79242 121.46767 1215 ft 128 kts 288°
2026-04-21 10:08 -30.79008 121.46016 1213 ft 58 kts 291°
2026-04-21 10:08 -30.78919 121.45744 1214 ft 18 kts 290°
2026-04-21 10:09 -30.78851 121.45721 1213 ft 9 kts 21°
2026-04-21 10:09 -30.78796 121.45743 1212 ft 7 kts 19°
2026-04-21 10:09 -30.78747 121.45764 1212 ft 8 kts 20°
2026-04-21 10:09 -30.78715 121.45778 1212 ft 4 kts 19°
2026-04-21 10:10 -30.78685 121.45791 1212 ft 6 kts 22°
2026-04-21 10:10 -30.78646 121.45791 1212 ft 6 kts 334°
2026-04-21 10:10 -30.78612 121.45757 1212 ft 3 kts 316°
2026-04-21 10:10 -30.78601 121.45745 1212 ft 3 kts 315°
2026-04-21 10:11 -30.78584 121.45728 1212 ft 3 kts 335°
2026-04-21 10:11 -30.78570 121.45742 1212 ft 2 kts 69°
2026-04-21 10:11 -30.78570 121.45745 1212 ft 0 kts 75°